Location: Austin
(30.3000°N, 97.7500°W)
Time: 07:59:33
(UTC-06:00)

SWAS - Pass Details

Date: 12 February 2024
Orbit: 567 x 572 km, 69.9° (Epoch: 28 February)

Event Time Altitude Azimuth Distance (km) Brightness Sun altitude
Rises 19:04:57 0° 340° (NNW) 2,765 8.0 -11.0°
Reaches altitude 10° 19:07:10 10° 342° (NNW) 1,865 7.1 -11.5°
Maximum altitude 19:11:20 79° 69° (ENE) 581 4.3 -12.4°
Drops below altitude 10° 19:15:29 10° 156° (SSE) 1,855 6.8 -13.2°
Sets 19:17:41 0° 158° (SSE) 2,749 7.7 -13.7°
